Theta_e
339 343 339 333 332 334 337 341 342 343 342 342 343 342 342 342 341 341 340 339 338 337 336 332 332 335 336 336 337 338 337 335 338 339 337 339 340 340 341 341 341 341 341 340 341 341 341 341 341 341 341 340 334 329 328 328 327 328 330 331 332 332 332 332 334 337 339 341 343 342 339 337 336 335 334 334 335 337 340 341 342 342 341 338 337
337 342 340 332 332 333 338 342 341 342 342 342 343 342 342 341 341 340 339 337 336 335 335 333 335 337 338 339 338 339 339 338 338 338 338 339 339 340 340 340 341 341 341 339 340 341 341 341 341 342 341 339 334 331 330 330 328 327 327 327 328 328 329 329 332 336 338 339 341 340 337 334 333 333 332 331 330 332 336 340 341 340 341 339 337
335 341 341 333 333 333 338 341 341 342 341 342 342 342 341 340 340 339 338 337 336 337 337 337 338 339 339 339 338 338 338 338 337 338 339 338 338 339 339 339 340 340 340 339 340 341 341 342 341 341 340 337 335 333 332 331 330 329 327 326 325 325 326 326 328 332 337 339 339 340 338 335 335 335 334 332 330 329 330 333 333 332 334 338 339
334 340 343 335 333 333 338 341 341 342 341 342 342 342 340 340 340 339 338 338 338 338 339 339 339 339 339 339 339 338 338 338 338 337 337 337 337 338 338 338 339 339 339 340 341 341 341 341 341 340 338 336 335 334 332 332 331 330 329 328 327 326 325 325 326 327 332 338 339 340 341 341 340 340 338 334 332 331 330 329 331 329 325 328 337
335 340 344 336 333 334 339 341 341 342 341 341 341 341 340 340 340 339 339 339 339 339 340 339 339 340 339 340 339 339 338 339 338 337 336 336 336 337 338 338 338 338 340 340 341 340 340 340 339 339 337 336 335 334 333 333 333 332 332 330 329 328 326 325 325 325 327 333 337 339 339 341 341 340 340 338 334 332 331 330 333 335 331 325 330
336 339 344 337 334 336 338 341 341 341 342 341 341 340 339 340 339 339 339 339 340 339 340 340 340 340 340 340 339 339 338 338 338 337 337 336 336 336 337 337 337 338 340 340 340 340 339 339 338 338 336 336 335 334 332 332 331 332 332 331 331 330 329 328 327 326 325 329 335 337 338 339 341 340 340 339 337 334 332 330 330 333 336 332 327
336 337 344 339 337 339 337 340 340 341 342 341 341 340 339 340 339 339 339 339 339 339 340 340 341 340 340 339 339 339 339 338 338 338 337 337 337 337 336 337 338 339 340 340 339 339 339 338 337 336 335 336 335 334 332 330 330 330 330 331 331 331 331 330 329 328 326 330 334 335 336 338 340 340 340 340 339 337 334 331 329 328 332 334 332
337 337 343 340 340 340 336 339 340 340 341 340 341 340 340 340 340 339 340 339 339 340 339 340 339 338 338 339 339 339 339 338 339 339 338 337 337 338 336 337 338 339 340 339 338 338 338 337 336 335 334 335 335 334 333 331 329 328 329 329 329 329 329 329 330 329 329 331 335 335 336 337 338 340 339 339 338 337 337 335 333 330 329 334 336
337 337 341 342 341 341 337 337 340 341 341 340 340 340 340 340 340 339 340 338 338 339 338 339 339 338 339 340 340 339 339 339 339 338 338 337 337 338 337 338 338 338 338 337 337 336 336 336 335 333 333 334 333 333 333 331 328 325 325 325 324 324 324 326 327 328 330 332 334 334 334 335 336 339 339 338 338 336 338 339 338 334 331 332 333
337 337 340 342 341 341 338 337 339 341 340 340 339 340 340 340 340 339 339 338 339 340 338 338 339 339 340 340 340 340 340 339 339 338 337 337 336 337 337 337 337 337 336 336 335 334 335 334 333 332 332 333 332 332 331 329 325 321 318 315 314 313 315 317 320 325 329 331 333 333 331 333 336 338 337 337 337 336 337 338 337 336 334 333 333
335 336 339 341 341 341 339 337 338 340 340 340 340 339 339 339 338 338 338 338 338 339 338 338 339 340 340 341 340 340 340 338 338 337 336 336 336 335 335 335 336 336 335 334 334 333 333 332 332 331 331 331 331 329 327 323 317 311 307 305 303 304 306 307 315 324 327 330 332 332 330 332 337 337 335 336 336 335 336 336 336 336 335 335 334
335 335 338 341 340 340 339 338 338 339 341 340 340 338 338 338 337 338 337 337 337 337 338 338 340 340 340 340 340 339 339 338 337 336 335 335 334 334 333 334 334 334 333 333 332 331 331 330 330 329 329 328 327 323 319 312 306 302 300 300 300 300 300 301 312 322 326 329 329 331 332 332 335 336 335 335 335 334 334 335 335 335 335 334 334
335 336 338 340 339 338 337 337 338 339 340 340 339 337 337 338 337 338 338 337 337 337 338 339 340 340 340 340 339 338 338 337 336 335 334 333 332 332 331 332 332 332 331 330 330 329 329 328 327 327 325 323 319 313 307 302 299 299 299 299 299 299 299 299 309 319 324 327 328 330 331 331 333 333 333 334 333 333 333 333 333 333 333 333 333
336 337 338 339 338 337 335 335 338 338 339 339 338 337 337 337 338 339 338 337 337 337 337 339 340 340 339 339 338 337 337 336 335 334 332 330 330 330 329 329 330 329 329 328 327 328 327 326 326 323 319 313 308 303 300 299 299 299 299 299 299 299 299 299 306 313 319 324 326 329 330 329 331 331 331 332 332 331 331 331 331 331 331 331 330
336 337 337 337 337 335 333 335 338 338 338 338 337 337 336 336 337 338 337 337 337 337 338 338 339 339 339 339 338 337 335 334 334 332 331 329 328 328 328 328 327 327 327 326 326 326 326 325 324 319 311 304 300 299 299 299 299 299 299 299 299 299 299 302 306 310 315 322 325 327 328 326 328 330 329 330 329 330 329 329 329 329 329 328 328
337 337 336 336 337 334 333 336 338 338 337 337 336 336 336 336 337 338 337 337 337 338 338 338 338 338 338 338 337 335 334 333 332 330 329 328 328 327 327 327 326 326 326 326 325 325 325 323 319 311 302 299 298 298 299 299 299 299 299 299 299 299 299 303 309 315 316 319 324 326 326 324 326 328 327 327 327 327 327 327 327 327 328 327 327
337 336 335 335 337 336 335 337 338 337 337 337 336 336 337 337 337 337 336 336 337 337 338 338 338 337 337 336 335 333 332 332 331 330 329 328 327 327 326 326 326 325 326 326 325 324 323 319 310 303 298 298 298 298 299 298 299 298 298 299 298 299 298 300 306 311 310 313 320 325 325 322 324 326 325 325 325 325 325 325 326 326 327 326 325
336 335 334 335 336 336 336 336 337 337 337 337 336 336 337 337 337 336 336 336 337 338 338 338 337 336 336 335 333 331 330 330 330 329 328 328 326 325 326 325 325 325 325 325 324 324 320 312 303 299 298 298 298 298 298 298 298 298 298 298 298 298 297 298 300 301 304 312 320 322 322 320 322 324 323 324 324 324 323 324 324 324 325 323 322
333 334 334 335 336 336 336 335 336 336 337 337 336 336 336 337 336 335 335 336 337 337 337 336 335 335 334 333 332 330 329 329 328 328 328 327 324 324 325 324 324 324 324 324 324 322 316 306 300 298 298 298 298 298 298 298 298 298 298 298 297 298 297 298 297 298 305 313 319 318 317 318 321 322 322 322 323 322 322 322 322 323 323 321 319
332 333 334 334 335 335 336 335 335 336 336 337 336 336 336 336 336 335 335 336 336 336 336 335 334 334 332 331 330 329 328 328 328 327 327 326 323 322 323 323 323 324 324 323 323 320 311 303 299 298 298 298 298 298 298 298 298 298 298 298 297 297 297 297 297 299 302 307 313 311 310 315 319 322 321 321 320 319 320 321 321 321 321 320 319
331 332 333 333 334 335 335 335 335 335 335 335 335 335 335 336 336 336 336 336 335 335 335 333 333 332 331 330 329 328 328 328 327 327 326 324 322 321 322 322 322 323 323 322 322 317 306 301 298 297 298 298 298 298 298 298 298 298 298 298 298 297 296 297 296 297 299 303 305 302 305 311 316 321 320 319 317 317 318 320 321 321 321 320 321
332 331 332 332 333 334 335 335 335 334 334 334 334 334 334 335 335 336 336 335 334 334 333 333 332 331 330 329 328 327 328 328 327 326 326 323 321 320 319 320 321 323 322 321 322 316 304 299 298 297 298 297 297 297 298 298 298 299 298 298 298 297 297 296 296 296 298 302 300 297 302 307 314 320 320 318 317 317 318 319 321 320 320 321 320
331 331 331 332 333 334 334 335 334 334 334 333 334 333 334 334 334 335 335 335 334 333 333 332 331 331 330 329 328 327 328 328 327 326 324 323 321 319 317 317 320 322 321 320 320 315 304 298 297 297 297 297 297 297 298 298 299 299 299 299 298 297 297 296 296 296 297 299 297 296 299 303 313 319 319 319 318 318 319 319 320 320 320 320 319
329 331 331 331 332 334 334 334 334 334 334 333 333 333 333 333 333 332 333 333 333 332 332 331 330 330 329 328 328 327 327 327 327 325 323 322 322 320 317 316 320 322 320 319 319 314 304 298 297 297 297 296 297 297 297 298 299 299 299 299 298 298 298 297 296 296 295 296 295 295 296 299 310 318 320 319 319 319 320 319 319 319 319 319 319
328 329 331 331 332 333 333 333 333 334 334 333 333 333 332 332 331 331 331 331 331 331 330 330 329 329 328 328 327 327 327 326 326 324 322 322 323 320 317 317 320 321 320 319 317 311 302 298 297 297 296 296 297 297 298 298 298 299 299 299 299 298 297 297 296 295 295 295 295 295 295 296 304 315 319 318 318 319 318 318 319 319 319 318 318
327 328 330 331 331 331 332 333 333 334 334 333 332 332 331 331 331 331 331 331 330 330 330 329 329 329 328 327 327 327 326 326 325 324 323 322 322 320 318 319 320 320 319 317 316 310 302 298 297 296 296 296 297 297 298 298 298 298 299 299 298 298 297 296 296 295 295 295 295 294 295 295 298 310 318 318 318 318 318 318 318 318 318 318 318
327 329 328 330 330 330 331 332 332 334 334 332 332 332 331 331 331 331 332 331 331 330 329 329 329 329 328 327 326 326 325 325 324 323 322 321 322 321 320 320 321 320 318 316 317 312 304 300 297 296 296 296 297 298 298 298 299 299 299 299 298 297 296 296 296 295 295 295 295 294 294 295 296 305 316 318 317 317 317 317 317 317 317 317 317
325 328 327 328 329 330 330 330 331 332 333 332 332 331 331 331 331 331 331 331 330 330 329 329 329 329 328 327 327 326 325 324 323 322 320 320 321 321 321 320 320 321 317 316 317 312 305 299 296 296 296 297 297 297 298 298 298 298 298 298 298 297 296 296 296 295 294 295 295 295 294 295 295 303 314 317 316 317 316 316 316 316 316 316 316
322 325 326 326 327 328 328 329 330 330 331 331 331 331 330 330 330 330 331 330 329 329 329 329 329 328 327 327 326 325 325 324 322 321 320 320 321 320 320 320 320 320 317 316 314 310 304 298 297 297 296 297 297 297 298 298 298 298 298 298 298 297 297 296 296 295 294 294 295 295 294 294 295 302 312 316 316 316 315 316 316 315 315 315 315
320 321 324 325 325 326 327 327 327 328 329 330 330 330 329 329 330 330 330 329 329 329 329 328 328 327 327 326 326 325 324 323 321 320 319 319 320 320 320 320 319 318 316 313 310 307 302 297 297 296 296 296 297 298 298 298 298 298 298 298 298 297 297 296 296 295 294 294 294 294 294 294 295 301 309 314 314 315 315 315 314 314 314 314 314
320 320 322 324 324 324 326 325 325 326 327 328 328 328 329 329 329 329 329 329 328 329 328 328 327 326 326 325 325 325 324 322 321 320 319 319 319 319 319 318 317 315 313 311 307 303 299 297 297 296 296 296 297 298 297 297 298 298 298 297 297 296 296 295 295 295 294 294 294 294 293 293 296 301 307 311 313 313 314 314 313 313 313 313 313
319 318 318 321 323 323 324 324 325 325 326 327 327 327 328 328 328 329 329 329 328 328 328 328 327 326 325 325 325 324 323 322 320 318 318 318 318 317 316 315 314 312 310 308 304 301 298 297 296 296 296 296 296 297 296 297 297 297 297 296 296 296 295 295 295 294 294 294 294 295 295 294 297 302 306 308 310 311 312 313 313 313 313 312 312
318 317 316 319 322 323 323 324 325 325 325 326 326 326 327 327 328 328 329 328 328 328 327 327 327 326 325 324 323 323 323 321 319 317 316 316 316 315 314 312 311 309 308 306 303 300 298 297 296 295 296 296 296 296 296 296 296 296 296 296 295 295 295 294 295 295 294 293 294 297 298 297 299 303 305 305 306 309 310 310 312 312 312 312 312
318 318 318 318 319 320 321 322 323 324 324 324 325 325 326 327 327 327 327 327 327 327 326 326 326 325 324 322 321 321 322 322 319 317 315 314 314 312 311 311 309 308 306 304 302 300 298 296 296 295 295 296 296 296 295 296 296 295 295 295 295 295 294 294 294 294 294 293 295 296 299 301 303 303 303 303 304 305 307 308 309 310 311 311 311
315 317 318 318 318 318 318 319 321 322 324 324 325 325 325 326 326 326 326 326 326 326 325 325 325 324 323 321 320 320 321 321 319 316 314 313 312 311 310 309 308 307 305 304 302 301 298 296 295 295 295 295 296 296 295 296 296 295 294 294 294 294 294 294 294 294 293 294 295 296 298 301 303 303 302 302 303 303 304 305 306 307 308 309 309
313 314 316 317 318 318 317 318 318 320 323 324 324 325 325 325 325 325 325 325 325 325 325 325 324 324 322 321 320 320 320 321 319 316 314 312 311 310 309 308 307 305 304 303 302 301 298 296 295 295 295 295 296 296 295 297 296 295 294 294 294 294 294 295 294 294 293 294 296 297 298 299 300 300 300 299 300 301 301 302 303 304 305 306 306
313 312 314 315 317 317 317 317 317 318 321 323 323 324 325 324 324 325 324 325 324 324 324 324 323 323 322 321 319 319 319 320 319 317 314 312 310 309 307 307 306 304 304 303 302 301 298 296 295 295 295 296 297 296 296 298 297 295 294 294 294 294 295 296 294 294 293 295 297 296 297 297 297 297 297 296 296 296 297 297 299 301 302 303 304
312 312 312 314 315 316 316 316 316 318 319 321 323 323 324 324 324 324 324 324 324 323 323 322 322 322 321 320 319 318 318 319 319 317 315 312 310 308 307 306 305 304 303 303 302 300 298 296 295 295 296 296 297 296 296 298 297 295 294 293 293 294 296 296 295 294 294 295 296 296 296 296 295 295 295 294 293 293 292 292 294 296 298 300 301
311 311 310 311 313 314 316 316 315 316 318 319 321 322 322 322 322 323 322 322 322 322 322 321 321 321 320 319 318 318 317 318 318 317 315 312 310 308 306 305 304 303 303 302 301 300 298 297 296 295 296 297 297 297 297 297 296 295 294 293 293 294 295 295 294 294 295 295 296 295 295 295 295 294 294 293 292 292 291 290 291 292 293 294 296
309 309 309 310 311 313 314 315 314 315 316 317 319 320 321 321 321 321 321 320 321 321 321 320 320 320 319 318 317 317 316 317 317 317 315 312 309 307 306 304 303 303 302 301 300 299 297 296 296 296 296 297 297 297 297 297 296 295 294 294 293 293 294 294 294 294 295 296 295 295 295 295 294 294 293 292 291 291 290 290 290 290 290 290 291
308 308 308 309 310 311 312 314 314 313 314 315 317 318 319 319 320 320 320 319 319 319 319 319 319 318 317 316 316 315 315 315 316 316 315 312 309 307 305 303 302 301 301 300 299 298 297 296 296 296 296 296 297 297 297 296 295 295 295 295 294 293 292 293 293 294 295 295 294 294 294 294 293 292 292 291 291 290 290 289 289 289 289 289 289
306 306 307 307 308 309 310 312 313 312 312 313 315 316 317 317 318 318 318 318 318 318 317 317 317 316 315 315 314 314 314 314 314 314 314 312 309 307 305 303 302 300 300 299 299 298 297 296 296 296 295 295 296 297 296 296 296 297 297 296 295 294 293 292 293 294 294 294 294 293 293 293 292 291 291 290 290 290 289 289 288 289 289 289 289
304 304 305 306 306 308 309 310 311 311 311 311 312 314 315 315 316 317 317 317 317 316 316 316 315 314 313 313 312 312 313 312 312 312 312 311 310 307 305 303 302 300 299 298 298 297 296 296 296 296 295 295 296 296 296 296 296 297 298 297 297 296 295 293 293 294 294 294 294 293 293 293 292 291 290 290 289 289 288 288 288 288 288 288 288
303 304 304 304 305 306 307 308 310 310 310 310 310 311 312 313 314 314 314 314 314 313 313 313 312 312 312 311 311 311 311 311 311 311 311 311 310 308 305 303 302 300 298 298 298 297 296 296 295 296 296 295 296 296 295 295 296 298 298 298 299 298 298 297 295 294 293 293 293 293 293 292 292 291 290 290 289 289 288 288 288 287 288 288 288
302 302 303 303 304 304 305 307 308 309 309 309 309 309 310 311 312 311 311 311 311 310 310 310 310 310 310 310 310 310 310 310 310 310 310 310 309 308 305 303 302 300 298 297 297 297 296 296 295 296 296 295 296 296 295 294 295 298 299 300 300 299 300 299 297 295 293 293 293 293 293 292 291 290 289 291 290 289 288 288 288 287 287 287 287
301 301 302 302 303 304 304 305 306 307 307 307 308 308 308 309 309 309 309 309 309 309 309 309 309 309 308 308 308 308 308 308 309 308 308 309 308 307 305 303 302 300 298 297 297 297 297 296 295 295 296 296 296 296 295 294 294 297 300 301 301 301 301 299 298 297 294 293 293 293 292 292 291 289 290 291 290 289 288 288 288 288 287 287 287
300 300 301 301 302 302 303 304 305 305 305 305 306 307 307 307 308 308 308 309 309 309 309 308 308 308 308 307 307 306 306 307 307 306 307 307 306 306 305 303 301 300 298 297 297 297 297 296 295 295 295 295 297 297 296 294 294 296 299 300 300 301 301 300 300 300 296 294 293 292 293 292 291 290 290 291 290 289 289 289 288 288 287 287 287
299 299 300 300 301 301 301 302 303 303 303 304 305 305 306 306 307 307 307 307 307 308 308 307 306 306 306 306 306 305 304 305 305 305 305 305 305 305 304 303 301 300 299 297 297 297 297 296 296 295 295 295 296 297 296 295 294 294 296 298 298 298 299 300 301 303 301 298 295 293 293 292 291 291 291 291 291 290 290 289 288 288 287 287 287
298 299 299 299 299 299 299 299 300 301 301 302 303 304 304 305 305 306 306 306 306 306 306 306 305 304 304 304 304 304 303 303 303 304 304 304 304 304 303 302 301 300 299 297 297 297 297 297 296 295 295 295 295 296 297 296 294 294 295 296 297 297 297 298 300 301 302 302 299 295 294 293 292 291 291 291 291 290 290 289 289 288 287 287 287
298 298 298 298 299 298 298 298 298 299 299 300 301 302 303 304 304 305 305 305 306 306 305 305 305 304 303 303 303 303 302 302 302 302 302 302 302 302 302 301 301 300 299 297 297 297 297 297 296 295 295 295 295 296 296 297 295 294 295 295 295 296 296 296 297 297 299 301 301 298 296 294 294 293 291 291 291 291 290 290 289 288 288 287 287
297 297 298 298 298 298 297 297 297 297 297 298 299 300 301 302 303 303 304 304 304 305 305 305 305 304 304 303 303 302 302 301 301 301 301 301 301 301 301 301 300 300 299 298 297 296 297 296 296 295 295 295 295 295 296 297 297 295 295 295 295 295 296 297 296 296 297 299 300 300 298 296 295 295 292 291 291 291 290 289 289 288 287 288 287
Wind_Speed
11 12 17 23 25 24 22 20 19 18 18 17 16 15 15 14 14 13 12 13 12 11 11 12 12 11 10 9 9 9 8 9 9 9 9 9 9 9 9 8 7 7 6 6 6 6 7 7 8 8 8 7 7 7 8 8 8 9 9 9 9 10 10 9 9 9 10 11 11 11 10 10 11 11 11 11 10 10 12 12 11 9 8 8 7
15 15 17 24 25 25 22 20 19 18 18 17 16 15 15 14 14 14 13 13 13 13 12 12 12 10 10 9 9 9 8 8 9 8 8 8 8 8 8 8 7 6 6 6 6 6 6 6 7 8 7 7 7 7 7 7 7 7 7 7 8 7 8 8 8 8 9 9 10 9 9 10 10 10 9 9 9 10 11 11 11 9 9 8 8
17 17 16 25 25 26 23 20 20 18 18 17 16 15 15 15 14 14 13 14 13 13 13 12 11 10 10 9 9 8 8 8 8 8 7 7 8 8 8 8 7 6 6 6 6 6 6 7 7 6 6 7 7 6 6 6 6 6 6 6 6 6 6 6 7 7 8 9 9 9 8 9 9 9 8 8 9 9 9 9 9 9 9 8 8
18 18 15 24 25 26 23 22 21 18 18 17 17 16 16 15 15 15 14 14 13 13 12 12 11 10 10 9 9 8 8 7 7 7 7 7 7 8 8 8 7 7 6 6 6 6 7 6 6 5 5 5 5 5 5 5 5 5 5 5 5 5 5 5 5 6 7 8 9 8 6 6 8 8 7 7 7 8 8 8 9 9 8 7 9
17 17 15 24 25 25 24 22 22 20 19 18 17 16 16 15 15 15 15 14 13 13 12 12 11 11 10 9 9 8 8 8 7 7 7 7 7 7 8 8 7 7 5 6 6 6 6 5 5 4 4 3 3 3 4 4 4 3 3 3 3 3 3 3 4 5 6 7 8 6 3 4 6 6 6 5 5 6 7 7 9 9 8 7 8
16 16 15 23 25 24 24 23 22 21 20 19 18 17 17 16 16 15 15 14 13 13 12 12 11 11 10 10 10 9 9 8 8 7 6 6 6 6 7 7 7 7 6 6 6 5 5 4 4 4 4 3 3 2 2 2 1 0 1 1 1 1 1 1 2 3 5 6 6 4 3 4 4 4 5 4 4 4 5 6 7 8 8 8 7
15 16 15 21 24 21 24 24 22 21 19 20 18 18 18 16 16 15 14 13 13 12 12 12 11 11 11 11 11 11 10 9 9 7 6 6 6 6 6 7 6 7 6 6 5 4 4 4 4 3 3 3 3 2 1 1 2 2 3 3 3 3 2 1 0 1 4 4 2 1 2 2 3 3 4 4 4 4 5 5 5 6 7 8 8
14 15 15 19 22 21 24 25 23 21 20 20 19 18 19 17 16 16 15 14 14 13 12 12 12 12 12 12 11 12 11 9 9 8 7 5 6 6 6 6 6 6 6 6 5 4 4 4 4 4 3 4 3 4 4 4 5 5 6 5 5 5 4 3 2 1 2 3 1 1 2 2 2 2 3 3 3 3 5 5 4 5 7 9 8
14 16 15 16 19 20 23 26 25 21 20 20 20 19 19 18 17 17 16 15 14 13 13 13 13 13 12 12 12 12 10 10 9 8 7 6 6 6 6 6 6 6 5 5 4 4 4 4 4 3 4 5 5 5 6 7 8 8 8 7 7 6 5 4 3 2 1 1 1 1 3 3 1 2 2 2 2 3 5 6 5 5 5 6 6
14 17 17 15 17 19 21 25 26 23 21 20 20 20 19 18 17 17 16 15 15 14 15 14 14 13 13 13 12 12 11 10 9 7 7 6 6 5 5 5 6 6 6 5 4 4 3 4 4 3 4 6 6 7 8 9 9 8 7 7 6 6 5 4 2 2 2 1 2 1 4 4 2 2 2 2 2 3 4 4 4 4 4 4 4
15 18 18 16 17 20 21 24 26 24 22 20 21 21 19 19 18 18 17 16 16 16 16 15 14 14 13 13 12 12 11 10 8 8 7 7 6 6 6 5 5 5 6 5 5 4 4 4 4 4 5 7 7 8 9 9 9 7 6 5 4 4 3 3 2 3 3 2 3 3 3 4 3 2 3 3 3 4 3 3 4 5 5 5 4
15 18 18 17 18 21 21 24 27 25 23 21 22 22 20 19 19 18 17 17 17 16 16 15 14 14 14 14 13 12 10 9 9 9 8 8 7 7 7 7 6 5 6 6 5 6 5 5 4 4 7 9 8 9 8 8 6 4 3 1 1 0 1 3 4 4 4 3 4 4 3 3 6 5 5 4 4 4 4 3 4 4 4 4 4
15 16 17 17 18 22 22 25 28 27 25 23 22 22 21 20 19 18 17 17 17 17 17 16 15 15 15 14 13 12 11 10 11 11 10 10 10 10 8 9 9 7 7 7 7 7 6 6 5 6 9 9 8 8 6 4 2 2 3 4 4 4 3 4 5 5 5 4 4 4 3 2 4 6 5 4 4 3 3 2 2 2 2 3 2
14 15 16 16 17 23 23 25 29 28 26 24 23 23 22 21 20 18 18 18 17 17 18 17 16 16 15 14 13 12 11 11 12 11 10 11 11 11 11 11 10 9 8 8 8 8 7 6 6 8 10 9 7 5 2 0 2 4 5 5 6 6 5 5 5 5 5 5 6 5 5 3 4 5 5 4 3 3 2 1 1 1 0 1 3
14 14 14 14 15 20 23 26 29 29 27 26 24 24 23 22 21 20 19 18 18 18 18 18 17 16 14 13 13 12 12 12 12 11 12 13 11 12 11 11 10 9 9 8 9 8 8 8 8 10 9 6 4 1 2 3 4 4 5 6 6 6 6 7 5 5 5 6 6 5 5 3 6 5 4 3 2 2 1 1 1 1 2 6 6
13 15 15 14 14 16 21 27 30 29 28 27 25 25 24 23 23 22 21 20 20 20 18 18 17 16 16 15 14 13 14 14 14 15 17 15 11 11 11 11 10 10 9 9 8 8 8 9 10 9 6 3 2 3 3 4 4 5 5 6 6 6 7 7 6 5 4 6 6 5 4 2 6 4 2 2 2 1 1 0 0 1 2 6 7
12 15 16 15 15 14 18 26 29 28 28 27 26 25 25 25 24 23 22 21 21 21 19 19 18 17 18 17 16 15 15 15 17 18 19 16 12 12 12 11 11 11 10 9 9 8 9 10 10 6 4 3 3 4 3 4 4 4 5 6 6 7 7 7 7 5 4 7 6 5 3 3 6 4 2 2 1 1 1 1 1 2 2 4 7
12 14 16 16 16 16 18 22 26 27 27 26 26 27 26 26 25 24 24 23 22 21 21 20 19 19 19 18 17 17 17 17 18 19 18 17 15 14 13 12 12 11 10 10 9 9 10 11 7 5 5 5 4 4 3 3 4 4 5 5 6 7 7 7 6 5 5 6 5 3 2 3 5 4 2 2 1 1 1 1 1 1 1 4 7
14 14 16 16 18 18 19 21 23 24 24 23 25 27 28 27 27 26 26 25 24 23 22 22 21 21 20 20 20 19 19 18 18 18 17 17 16 16 15 13 12 12 11 11 10 10 12 10 7 7 6 5 4 4 3 3 3 4 5 6 6 6 6 7 6 6 6 5 4 1 3 4 4 2 2 2 1 1 1 0 0 0 1 3 5
15 16 17 18 19 20 20 21 23 24 24 23 23 25 28 29 28 28 28 27 26 25 24 23 23 23 22 22 22 22 21 20 20 19 18 18 17 17 16 14 13 12 12 11 11 11 12 10 8 7 6 5 4 3 2 2 3 4 4 5 5 6 6 6 6 6 5 5 3 2 4 5 3 2 2 2 1 1 1 2 2 2 2 2 3
15 17 19 19 20 21 22 22 22 24 26 26 25 24 27 30 30 30 29 29 28 28 26 25 25 24 24 24 23 23 21 21 21 20 20 19 19 17 16 16 14 13 13 12 11 11 12 10 9 8 7 5 3 3 2 2 2 3 4 4 5 5 5 5 5 5 4 4 2 1 3 5 3 3 2 1 1 1 2 3 4 4 4 5 5
15 17 19 21 21 23 24 23 23 24 25 26 27 25 26 28 31 31 30 31 30 30 29 27 27 25 25 25 24 22 20 18 19 20 19 19 19 18 17 16 14 14 14 12 11 11 12 11 10 9 7 5 4 3 2 1 1 2 3 3 4 4 4 4 4 3 3 2 1 1 3 4 3 2 2 2 2 2 3 4 5 4 5 5 6
16 17 20 23 23 23 25 26 25 25 26 26 26 25 25 25 29 30 29 31 31 32 31 28 26 24 24 26 24 20 18 17 16 19 19 17 18 18 18 17 16 16 16 13 11 11 13 12 11 10 7 6 5 3 2 1 0 1 2 2 3 3 3 4 3 2 2 0 1 1 2 3 3 2 1 2 2 3 4 4 5 4 5 5 6
18 19 19 22 24 23 25 27 27 25 26 26 26 26 26 25 25 28 29 28 28 30 29 27 24 23 23 24 22 20 19 17 16 19 19 17 17 18 18 18 17 18 18 14 11 12 14 15 12 9 8 8 7 5 3 2 1 1 1 1 2 2 3 3 3 3 3 2 2 0 2 2 3 2 1 1 2 3 4 4 4 4 5 5 5
18 18 17 19 24 25 24 26 27 26 26 26 26 26 26 25 24 26 29 26 25 26 26 26 25 25 24 22 21 21 19 17 17 19 19 16 16 18 19 19 18 18 19 15 12 15 16 16 13 11 11 9 8 6 5 4 3 2 2 2 2 2 3 3 3 3 3 4 3 2 1 2 3 3 1 0 1 2 3 3 3 4 4 4 5
15 16 17 18 23 26 25 24 25 26 27 26 25 25 25 25 25 26 27 25 24 24 24 25 26 25 25 24 22 22 21 18 16 18 19 17 16 18 20 20 18 17 19 16 14 16 17 17 15 13 13 11 9 8 7 6 5 4 4 3 3 2 3 3 3 3 4 5 4 3 2 2 3 3 1 0 1 1 2 2 3 3 3 4 4
14 15 17 17 19 24 25 24 24 25 27 26 24 24 25 25 25 26 26 24 24 24 23 24 25 25 26 25 24 23 23 20 17 18 20 18 16 18 19 19 18 18 19 17 15 16 18 18 16 15 14 12 11 9 8 7 6 6 5 4 3 3 3 3 4 3 4 5 5 4 3 2 3 3 2 0 1 1 2 2 2 2 2 3 3
14 14 15 16 18 21 24 24 24 24 26 27 25 23 24 24 25 25 25 25 24 23 23 24 24 25 26 27 25 24 24 22 18 19 20 19 17 18 18 19 18 17 19 17 16 19 20 19 18 17 16 13 11 10 9 8 7 7 6 5 5 4 4 4 4 3 4 5 5 4 3 3 3 4 3 1 1 1 2 2 1 1 1 2 2
16 15 15 17 19 20 24 26 25 24 25 26 27 25 24 24 24 24 25 26 25 23 23 23 24 24 25 28 28 26 25 22 20 20 20 19 18 18 18 18 18 17 18 17 19 23 22 20 19 18 16 14 12 11 11 10 9 8 8 7 6 5 5 4 4 4 4 4 5 4 3 3 4 5 5 3 2 2 2 3 2 1 1 1 2
19 18 17 19 21 22 25 28 28 27 25 25 27 26 25 24 24 25 25 26 26 23 23 24 24 24 25 29 31 28 24 22 21 20 20 20 19 19 18 18 18 17 19 20 22 24 22 21 20 18 17 15 14 13 12 11 11 10 9 8 7 6 5 5 5 4 4 4 5 4 3 3 5 6 7 5 3 3 3 3 3 2 2 2 1
19 20 21 21 23 24 26 29 30 29 27 27 28 27 25 25 24 25 25 26 26 25 24 24 24 25 26 29 32 31 27 23 22 21 21 21 20 20 20 19 19 20 23 24 24 24 22 22 21 19 18 17 16 15 14 13 12 11 10 9 8 7 6 6 5 5 4 4 5 4 3 4 5 7 8 7 6 5 4 4 3 3 3 3 1
21 24 25 22 22 24 25 27 29 30 31 30 30 30 27 25 25 25 26 26 26 26 25 24 24 25 27 31 34 35 32 25 23 23 22 22 21 22 22 22 23 25 26 27 26 24 23 22 22 21 19 17 17 16 15 14 13 13 11 10 9 8 7 6 6 5 5 4 3 3 3 4 6 8 8 8 9 8 6 5 4 3 3 4 3
21 25 26 22 20 22 24 25 27 29 33 32 31 33 30 26 26 25 25 26 26 26 26 25 25 25 28 33 36 37 37 28 24 26 26 22 22 24 26 26 27 28 28 28 27 26 24 23 23 22 20 18 18 18 17 14 14 14 12 11 10 9 8 7 7 6 6 5 4 3 3 5 6 8 9 8 9 9 8 6 5 5 4 4 4
18 17 19 21 21 23 25 26 27 29 32 32 29 31 30 27 26 25 25 26 27 27 25 24 24 25 29 35 38 37 38 32 25 28 29 25 25 28 29 29 29 28 29 29 28 27 26 25 25 23 21 20 18 19 17 15 14 13 13 11 10 10 9 8 7 7 6 5 5 5 4 5 5 7 9 9 8 9 9 8 7 7 7 6 5
17 14 15 19 21 23 26 26 28 29 30 30 29 27 26 26 25 24 24 26 27 26 25 25 23 24 29 35 38 38 39 36 30 29 31 28 27 29 30 29 29 29 30 30 29 28 27 26 25 24 22 20 18 18 17 14 14 13 13 11 10 10 9 8 9 7 7 6 6 6 6 6 5 5 7 8 9 10 9 10 9 9 9 9 7
15 15 14 16 17 20 23 24 26 28 27 28 29 26 23 22 23 22 23 23 24 25 24 24 23 23 27 34 38 38 39 39 35 33 32 31 29 29 30 30 31 31 31 31 30 28 27 26 26 24 23 21 18 18 16 13 13 14 13 11 11 10 8 8 9 7 7 6 6 7 6 7 7 7 6 6 10 11 10 10 10 10 10 10 9
12 13 13 13 14 16 20 22 23 25 24 24 25 24 20 19 19 19 20 20 21 22 21 21 22 21 23 29 36 39 41 41 39 37 34 33 32 31 30 31 33 33 32 31 30 29 27 26 26 24 23 22 19 19 16 12 13 14 13 13 11 9 7 7 7 8 8 7 7 8 8 9 11 10 8 6 9 10 11 11 10 10 10 10 10
9 9 10 11 12 12 14 18 19 19 20 21 21 21 19 17 17 17 17 18 18 18 19 19 20 20 20 24 32 38 40 41 41 39 37 33 32 32 31 32 34 34 32 31 31 28 26 27 27 25 23 21 20 20 16 12 13 13 12 12 11 9 7 8 8 8 7 7 8 9 9 10 11 11 11 10 9 9 11 11 10 10 10 10 10
8 7 6 6 8 9 9 12 15 15 15 16 16 17 17 16 15 15 15 16 17 18 19 18 18 20 22 23 29 35 37 40 41 40 39 35 33 32 31 32 34 34 32 31 30 28 26 26 27 26 23 19 18 18 16 14 14 13 11 11 10 10 9 9 9 7 7 8 9 11 10 10 11 13 13 12 11 10 10 9 9 11 12 12 11
11 9 7 5 4 6 6 7 9 11 11 12 12 13 14 14 14 15 16 16 18 21 20 17 18 22 24 24 27 32 34 38 40 40 39 36 34 33 31 32 34 34 33 32 32 30 30 29 27 27 25 20 16 16 17 17 14 11 9 9 9 10 10 9 9 8 8 9 11 12 11 10 12 14 13 12 12 12 11 10 10 11 12 12 11
17 15 12 9 5 4 5 5 6 8 9 10 11 12 13 13 13 14 16 16 18 21 19 17 21 24 21 21 25 29 31 34 37 39 39 37 33 32 32 32 33 34 34 35 33 31 32 31 28 27 28 25 20 17 19 18 14 9 6 5 6 8 10 10 9 10 10 10 11 10 10 11 12 13 13 13 13 12 11 11 11 11 12 11 11
21 20 18 14 9 5 4 4 4 6 8 9 10 11 12 12 12 12 13 13 14 16 16 17 22 22 17 18 22 25 28 31 34 37 38 37 35 32 32 33 35 35 34 33 32 30 32 31 29 28 28 27 23 21 22 19 13 10 7 4 3 5 8 9 9 10 11 10 10 10 10 11 13 13 13 13 13 12 11 12 12 12 11 10 10
20 21 21 18 13 9 6 3 3 4 6 7 9 9 9 10 10 9 9 9 10 10 12 13 16 15 14 17 20 21 25 28 31 34 36 37 37 35 33 33 36 35 34 33 32 32 34 33 32 31 28 25 22 22 26 22 15 12 9 4 4 3 4 8 10 12 12 11 11 12 12 12 14 14 13 13 13 12 12 13 12 12 11 10 10
20 21 22 19 16 13 10 7 3 2 2 4 6 6 6 7 8 8 8 7 8 7 8 10 11 12 13 17 20 22 24 26 29 32 35 36 37 37 34 34 36 37 36 36 35 36 37 36 35 33 30 26 21 22 28 27 21 15 9 4 4 4 4 6 10 12 13 13 12 12 13 14 15 16 13 12 12 12 13 13 12 12 11 11 10
23 23 21 20 17 14 12 10 7 4 3 2 3 4 4 4 5 7 8 8 9 8 8 10 11 14 16 17 20 23 25 27 29 31 34 37 37 36 35 34 36 38 38 38 37 38 38 39 38 35 34 32 26 24 27 30 29 22 14 6 4 4 4 6 9 8 12 13 13 13 14 15 16 16 14 12 13 13 13 13 12 12 11 11 11
24 22 20 19 17 14 13 11 10 9 8 6 3 3 4 4 4 6 7 7 9 9 9 11 10 12 14 15 17 20 23 25 27 29 32 35 37 36 35 35 37 38 39 39 37 37 38 39 40 37 36 36 30 25 27 31 32 28 23 14 8 4 3 8 7 3 8 12 13 15 15 15 16 16 15 13 15 16 13 14 13 12 12 12 13
22 21 18 17 16 15 15 14 13 12 11 10 7 4 4 5 5 6 7 7 8 8 8 9 9 9 9 11 12 14 19 22 23 25 28 31 35 36 35 35 36 37 38 38 35 35 39 40 40 40 39 37 31 28 29 32 31 31 31 25 16 9 7 10 6 2 5 7 12 16 16 16 17 16 16 16 17 17 15 15 14 14 13 12 14
21 20 18 17 16 16 18 18 16 16 14 13 10 7 6 6 6 6 7 8 8 9 8 6 6 7 6 8 10 11 14 18 19 21 25 28 32 34 34 34 35 35 35 36 35 33 36 38 39 39 37 37 35 31 30 32 33 34 35 31 24 18 13 12 10 6 4 4 7 12 15 17 18 18 18 18 19 18 17 17 16 16 14 13 16
21 20 19 18 15 16 21 22 19 18 17 15 12 10 8 8 7 8 8 8 8 9 8 7 5 5 6 7 9 9 11 15 18 19 21 25 29 31 32 33 34 34 33 35 35 33 34 37 39 40 38 37 37 34 30 32 37 37 36 34 28 22 18 15 13 10 6 4 5 6 10 13 15 21 23 21 20 20 19 19 18 17 15 15 18
19 18 17 16 14 17 24 26 23 20 19 17 14 12 10 8 7 8 9 10 10 10 9 8 7 5 6 7 8 9 10 12 15 17 19 22 26 29 31 32 33 33 32 33 35 33 32 34 38 41 40 37 36 36 33 31 35 36 35 36 32 24 17 13 14 14 9 7 5 5 11 13 10 16 24 25 23 22 21 21 20 19 17 16 19
17 16 14 13 16 22 26 27 26 23 21 20 17 14 12 10 9 8 9 9 10 10 10 10 9 8 8 7 8 9 9 10 12 15 18 21 23 25 29 31 31 31 31 33 35 34 33 34 36 39 39 38 35 35 34 31 31 33 33 34 35 33 25 18 20 21 14 8 6 5 10 15 12 12 20 25 24 23 23 23 23 21 19 18 19
Wind_Direction
179 165 183 188 183 182 176 173 176 178 180 178 180 180 181 181 181 181 182 182 181 177 168 167 162 158 154 150 149 146 148 147 149 151 152 150 147 147 145 145 143 142 142 143 142 140 134 127 118 113 113 112 108 101 96 88 83 80 81 83 82 82 79 78 79 86 91 98 103 102 97 92 90 87 86 86 90 94 96 92 82 71 67 71 72
180 165 180 188 184 183 176 175 178 179 180 178 181 182 183 182 182 184 184 181 177 173 169 169 165 163 162 160 162 162 163 163 163 159 159 158 156 155 151 148 146 147 153 153 148 144 139 135 127 126 122 117 119 109 99 95 95 93 91 90 85 83 80 79 80 84 86 93 98 98 96 94 92 87 87 88 88 93 103 109 105 88 73 74 74
178 166 178 188 186 184 177 177 179 181 182 179 182 184 186 184 184 185 181 176 172 171 170 172 171 171 170 170 173 173 173 172 171 166 168 169 165 161 156 154 152 157 159 156 152 148 145 140 139 141 128 123 130 117 105 102 105 103 99 97 93 91 84 84 86 91 93 95 89 77 79 88 89 82 80 84 85 87 96 106 103 90 84 82 76
173 165 174 187 187 184 179 179 180 182 183 181 184 186 187 185 187 186 180 176 174 175 175 176 176 177 176 176 178 179 179 176 177 176 177 178 176 172 165 162 161 164 162 158 152 149 150 146 146 146 135 141 142 121 114 116 115 108 102 98 97 96 93 93 92 98 102 102 90 74 75 83 84 81 75 77 82 83 84 86 85 82 84 86 81
170 163 172 187 187 185 180 180 182 183 185 183 186 189 188 187 189 188 183 179 180 181 181 182 182 182 181 182 183 183 182 179 180 182 182 183 185 183 174 169 168 166 164 158 151 153 154 150 151 150 157 174 158 131 121 119 120 107 95 93 92 97 98 98 99 104 111 114 99 86 94 87 83 85 75 71 78 83 82 80 82 80 73 77 85
170 165 170 184 185 186 182 181 186 185 186 186 188 191 189 191 192 190 186 184 185 187 187 186 186 187 187 188 189 187 185 184 178 178 184 184 181 179 175 170 168 166 161 157 151 157 151 152 171 160 168 191 179 160 133 107 96 33 347 11 22 62 78 88 99 100 109 110 91 84 93 83 85 91 83 71 70 75 81 83 85 85 79 75 80
170 171 169 181 181 187 186 181 187 188 189 189 190 193 191 193 194 192 191 190 189 191 192 189 190 191 194 196 196 191 187 185 171 167 175 174 171 169 171 167 166 163 159 158 150 153 145 158 177 151 168 201 204 215 229 308 333 313 302 301 297 293 292 284 225 121 108 85 47 87 92 84 89 90 98 83 67 68 71 76 82 90 92 80 71
170 175 171 179 180 191 192 183 186 189 191 191 192 194 195 194 195 195 194 196 192 194 196 193 194 196 201 202 201 196 188 182 170 166 168 166 170 165 164 161 161 161 154 151 147 153 156 171 163 134 188 226 237 257 271 299 321 314 300 296 292 283 277 268 267 239 112 60 21 120 99 94 90 86 106 104 88 80 71 60 66 85 98 96 86
172 176 175 178 183 196 196 187 186 189 192 194 194 195 197 197 197 198 197 198 195 197 198 196 197 201 204 202 201 196 185 178 171 170 171 173 175 165 161 161 162 166 161 154 151 167 173 184 169 144 219 247 257 271 284 300 310 309 300 296 293 284 274 261 251 209 104 43 45 99 140 121 90 113 113 121 110 98 93 80 74 76 93 112 109
176 176 178 177 188 201 200 193 187 188 194 195 197 197 199 199 200 200 199 199 197 199 199 198 201 203 202 201 200 192 181 178 178 177 178 183 182 177 179 176 176 177 174 169 163 175 176 193 196 169 230 257 266 279 288 298 302 303 300 296 291 282 274 258 237 177 134 93 66 66 147 118 79 147 123 125 112 115 124 106 92 73 77 96 97
178 176 178 179 194 201 201 200 191 189 193 197 200 199 200 201 203 202 202 202 200 201 199 201 203 203 200 198 197 190 181 180 184 188 190 192 190 193 197 196 194 192 190 186 184 190 181 194 205 184 241 268 277 283 288 293 297 302 301 298 288 276 265 227 141 140 132 111 117 102 113 93 80 125 113 101 88 96 111 98 88 76 74 75 73
179 178 178 180 198 201 199 203 196 193 194 198 203 202 202 203 206 205 205 205 204 204 201 204 204 202 199 196 196 191 187 188 194 197 204 208 213 220 220 220 215 207 206 203 207 210 195 197 201 203 255 273 277 281 285 292 299 315 320 347 327 184 218 175 136 128 113 106 139 122 96 75 82 94 90 87 80 76 81 80 83 79 74 69 69
180 179 180 181 197 202 200 203 198 196 196 200 205 205 205 204 207 207 207 207 207 206 205 205 204 203 199 197 196 192 192 197 206 212 226 237 242 244 236 233 227 221 221 216 216 213 206 209 205 223 262 273 274 278 283 294 318 32 69 74 77 91 100 133 134 126 109 102 116 106 89 58 90 102 88 80 83 76 74 78 84 84 83 86 83
183 180 183 183 195 204 202 202 198 197 197 200 205 206 207 206 207 208 208 209 208 209 209 205 204 205 199 198 197 198 203 203 213 225 243 248 244 238 229 228 228 225 221 214 208 204 207 205 203 238 266 271 272 274 271 33 87 80 81 80 81 85 95 109 120 127 118 106 103 96 85 89 131 114 92 89 84 80 81 75 76 80 184 252 281
188 185 186 185 193 206 205 201 198 198 199 201 205 206 207 207 207 208 208 209 209 210 211 206 204 204 198 198 201 208 218 218 228 234 235 235 230 225 221 219 219 215 210 202 199 200 200 198 217 253 266 263 255 208 130 109 98 89 86 84 86 85 94 100 102 109 110 103 94 93 80 112 145 115 91 103 81 83 88 65 38 10 282 273 282
191 190 189 190 192 205 206 200 198 199 201 203 205 205 205 206 207 208 208 208 210 211 209 207 204 201 200 203 206 214 226 231 236 234 228 224 219 219 218 215 213 209 205 198 198 197 196 213 240 258 255 227 187 145 128 115 101 95 92 89 90 90 96 103 104 94 107 117 97 88 78 122 143 116 105 119 93 78 42 40 335 320 298 279 278
194 196 194 194 191 196 200 200 200 201 202 204 206 206 205 206 208 209 210 209 211 210 205 204 204 205 211 213 213 218 228 232 231 234 231 222 214 215 216 214 211 210 205 200 199 195 206 232 246 244 216 188 166 152 135 119 106 98 93 91 93 92 98 107 115 114 134 134 104 83 85 142 144 121 110 115 106 73 352 307 294 295 307 291 284
199 203 199 198 195 194 195 200 204 203 204 207 208 208 207 207 209 210 211 210 209 207 203 205 208 212 217 219 219 221 227 230 229 232 230 224 217 212 213 213 210 209 205 204 199 195 219 238 235 215 197 183 172 159 138 120 104 95 91 87 88 90 97 102 114 122 122 117 92 83 129 157 147 126 100 92 99 91 29 329 311 293 311 297 293
204 205 203 202 199 198 196 200 205 205 205 207 210 211 210 209 210 211 210 210 208 206 208 211 213 216 218 220 222 222 226 231 232 231 228 226 220 210 208 209 209 207 204 203 195 201 225 233 220 206 195 186 177 160 140 123 100 87 82 77 80 83 88 94 104 116 117 111 95 151 191 151 129 111 99 100 123 157 104 69 336 336 348 311 307
210 207 206 206 202 201 199 200 203 205 206 207 210 212 213 211 210 211 210 210 210 210 212 216 218 221 222 224 224 223 226 230 232 231 228 226 218 212 208 206 205 205 203 199 194 209 227 223 213 206 196 194 182 168 145 116 91 75 69 66 68 72 78 88 97 109 124 134 131 217 200 161 128 96 109 123 152 207 120 112 106 90 70 53 42
213 211 209 207 205 204 202 202 202 204 207 208 211 213 216 215 212 211 211 211 213 214 215 219 222 224 226 227 225 223 223 226 229 231 230 226 218 213 211 206 201 202 199 196 193 209 224 218 211 208 203 200 184 182 154 106 77 60 50 51 49 54 62 71 86 100 116 140 170 216 193 175 139 101 116 125 110 121 117 117 110 101 91 85 85
211 211 211 208 206 205 204 203 203 204 205 208 211 213 217 220 217 214 214 215 216 218 219 222 223 224 227 227 224 219 215 218 222 224 225 223 220 215 213 207 198 200 198 192 188 203 221 216 212 211 203 202 195 194 169 109 56 47 30 31 34 34 36 47 64 77 103 136 205 170 186 177 130 99 121 120 106 116 117 119 115 107 101 96 95
209 208 212 209 205 204 204 204 205 203 203 206 209 211 214 218 220 218 218 219 218 220 221 223 223 221 224 225 219 213 210 210 212 215 214 213 217 215 212 205 196 200 199 190 188 202 218 215 213 210 200 202 202 202 202 193 222 24 9 8 8 10 6 23 37 34 64 208 314 147 197 168 123 81 113 124 119 125 122 122 121 113 109 104 100
213 211 212 209 206 205 205 205 206 204 203 204 207 211 212 214 219 218 218 219 219 220 220 220 220 216 218 220 214 210 208 206 210 214 211 204 208 213 209 201 196 202 203 192 193 205 214 215 211 205 203 205 203 204 209 215 220 237 289 309 321 338 345 360 5 360 354 332 342 320 231 182 135 83 67 128 119 133 131 124 122 117 114 110 106
219 214 210 207 207 207 206 207 206 204 204 203 205 210 211 213 216 214 213 214 214 215 216 215 216 214 213 215 211 209 206 201 208 211 205 195 198 206 202 196 194 201 205 196 198 208 212 216 209 202 208 207 205 207 207 216 218 225 243 259 288 309 325 340 343 349 339 330 339 323 280 219 164 109 39 129 118 138 135 128 124 122 117 111 105
219 213 212 209 210 211 208 207 206 206 205 203 204 208 210 212 212 212 210 209 209 208 209 210 212 211 209 212 211 209 207 201 199 200 198 190 192 197 194 191 189 195 201 195 198 210 212 214 209 204 209 207 207 209 208 213 214 220 230 243 264 286 305 320 326 341 330 321 331 324 310 254 192 139 84 351 149 142 136 129 124 120 116 111 102
221 217 217 214 214 214 210 206 207 206 207 205 205 208 210 212 212 211 208 205 205 204 203 206 208 208 206 208 208 206 206 201 194 195 195 192 191 191 188 189 188 192 198 191 193 205 210 212 208 207 210 208 209 211 213 215 217 221 226 235 247 263 279 296 307 320 315 310 318 318 310 281 214 158 110 123 165 153 159 142 121 102 104 111 99
231 225 221 219 217 214 211 209 209 208 207 207 206 209 211 212 212 211 210 207 205 203 202 204 206 205 204 205 205 203 203 199 194 194 194 194 193 190 187 189 188 192 195 190 193 203 209 211 208 209 211 210 211 213 215 217 218 221 224 227 233 247 259 273 287 296 301 300 306 309 299 277 223 174 127 126 172 170 187 172 162 104 105 115 90
237 232 222 219 219 215 214 212 210 209 207 206 207 209 211 212 211 211 213 212 207 204 203 203 204 203 203 206 204 202 200 195 193 194 193 193 192 190 188 189 189 189 188 190 200 207 209 210 209 210 211 211 212 214 216 216 216 219 221 223 229 238 251 264 278 286 283 283 291 296 282 253 219 184 144 131 167 182 196 191 196 188 157 136 74
235 234 226 222 221 216 215 216 215 213 207 205 207 208 210 211 210 210 212 214 209 203 203 203 203 202 203 207 207 203 199 195 196 194 193 193 190 189 188 187 187 187 190 195 206 210 209 210 211 210 210 210 212 214 215 215 217 219 220 221 227 235 247 260 270 280 277 273 280 283 260 229 212 194 163 144 147 161 179 189 197 200 190 187 72
233 231 227 224 224 219 217 220 220 216 210 207 208 208 209 210 209 208 210 213 210 203 202 204 203 203 205 207 207 206 203 198 197 194 192 193 190 190 190 188 189 195 201 203 209 211 209 211 212 210 209 209 211 213 212 214 216 218 220 221 225 233 243 255 262 268 266 265 273 276 251 216 205 198 175 156 148 144 147 165 183 194 195 204 207
238 239 236 227 222 220 219 220 218 215 214 210 211 212 208 209 210 208 209 210 211 206 202 204 204 203 205 207 209 211 210 202 197 198 195 192 192 194 195 196 199 205 208 209 212 210 207 210 211 210 207 206 209 210 208 210 214 216 217 220 225 233 239 249 258 258 254 252 261 268 242 210 202 200 187 175 166 152 141 141 147 158 181 192 184
244 249 246 231 219 219 219 220 215 213 218 214 214 217 212 208 208 207 209 208 211 210 204 204 205 203 206 213 217 217 214 206 200 205 203 194 196 201 202 204 207 210 212 211 213 210 206 208 209 207 204 203 206 208 205 204 211 215 216 219 224 233 239 245 252 253 253 246 227 220 220 208 202 204 201 197 188 175 161 145 133 132 148 162 160
248 247 242 232 225 225 223 222 216 213 219 217 213 216 213 209 208 208 209 207 208 209 205 205 207 207 213 221 223 219 215 210 203 208 208 201 203 208 209 209 210 212 213 213 213 210 207 209 209 206 204 203 206 210 204 201 209 213 215 218 222 231 236 238 243 248 246 234 216 205 195 187 191 209 213 212 209 201 190 176 165 160 151 142 137
259 249 240 238 233 231 228 224 221 217 217 217 213 212 211 209 208 208 208 207 207 210 209 210 210 211 217 224 224 219 216 213 208 210 212 208 209 212 212 211 211 213 214 215 213 210 208 210 210 205 204 203 206 209 202 201 208 210 215 215 220 228 230 234 239 242 236 225 214 203 184 173 177 207 214 217 221 218 214 206 198 192 179 165 151
268 260 252 245 235 231 233 229 226 223 217 216 216 213 212 211 210 210 209 208 208 211 211 210 211 211 217 225 226 220 217 215 213 214 215 213 212 214 215 214 214 214 215 215 213 210 208 209 209 205 203 200 201 204 197 196 205 207 210 209 217 222 218 233 237 234 228 214 204 198 183 178 186 195 190 209 227 222 223 224 218 212 202 192 180
282 273 264 254 243 236 235 233 231 227 219 216 217 214 212 211 212 213 211 209 209 210 209 209 210 212 215 222 226 222 218 217 215 216 217 216 216 217 217 216 217 216 215 215 212 208 207 207 206 203 202 199 198 200 190 186 199 203 206 206 213 213 205 219 225 226 221 202 202 201 194 202 206 201 192 206 229 226 226 229 229 227 218 209 199
306 292 277 265 259 249 237 235 235 227 218 216 215 212 211 211 212 213 212 210 212 213 211 211 213 217 218 218 222 222 219 218 217 217 218 218 218 218 218 217 218 217 214 215 212 207 206 207 205 202 201 199 199 198 188 181 194 199 204 209 213 207 202 213 216 222 220 208 210 207 207 218 215 205 205 213 220 226 228 228 231 232 227 220 213
337 328 312 286 270 263 246 239 237 226 218 216 213 210 210 212 213 214 215 214 221 224 218 216 218 223 225 218 220 222 220 218 217 218 219 218 219 218 217 219 219 216 213 214 211 205 205 206 205 202 198 197 199 196 188 186 192 194 198 207 212 206 207 218 219 215 212 212 213 210 210 214 213 212 216 220 221 225 227 224 229 235 234 229 226
13 10 6 350 297 273 259 246 238 225 217 214 209 207 208 212 215 218 221 220 227 231 225 224 227 228 227 222 222 224 222 220 219 219 219 218 219 218 217 219 220 216 212 213 210 206 207 206 205 203 196 190 191 189 189 190 186 182 190 205 215 216 216 218 216 208 205 214 218 216 213 212 218 222 223 224 227 230 228 225 230 239 242 238 235
19 20 23 15 353 305 271 256 241 220 212 211 207 206 208 211 215 218 223 223 226 231 229 228 232 232 227 223 227 227 224 222 220 220 220 218 217 218 218 219 219 216 215 215 212 209 209 207 204 203 200 192 185 184 188 186 174 167 175 197 217 229 229 221 214 213 212 215 216 213 210 214 222 226 226 226 231 233 230 232 232 237 245 242 238
16 16 20 16 8 355 304 269 248 221 213 213 209 211 214 214 218 221 224 225 225 229 227 227 232 232 225 225 229 229 227 225 223 221 221 219 217 217 219 221 220 217 216 215 213 210 209 207 202 202 201 197 192 187 187 182 173 172 164 161 198 231 239 229 222 220 215 210 207 205 207 212 219 224 225 228 232 233 231 234 234 234 241 238 233
17 16 17 16 15 12 358 321 273 235 225 221 217 220 222 220 223 227 226 226 228 227 223 225 229 227 224 228 231 231 230 228 226 224 222 221 220 219 220 222 221 218 215 213 211 211 210 207 204 202 198 195 195 194 193 189 181 171 161 170 192 188 230 227 222 222 214 208 204 204 207 210 218 221 220 227 232 233 233 234 236 236 236 232 227
21 19 16 15 13 11 9 358 342 296 261 237 230 233 232 222 218 225 224 220 225 224 219 223 225 224 228 232 234 235 233 231 230 228 226 224 223 222 221 223 223 220 217 214 212 211 211 209 206 204 196 190 190 196 200 197 188 174 168 196 188 185 231 202 198 211 207 204 206 206 209 213 219 219 215 221 225 227 231 230 234 236 231 226 218
20 17 14 13 9 10 16 14 15 15 357 318 258 245 237 224 211 225 229 225 232 232 225 226 225 229 232 234 237 238 236 235 233 232 230 229 226 224 223 224 224 222 219 217 215 214 213 211 208 205 201 197 192 193 199 201 198 189 184 189 168 202 241 159 160 190 196 200 206 206 212 215 218 219 212 212 215 219 227 228 229 233 231 223 208
17 12 10 12 8 10 26 33 37 36 21 10 335 278 254 248 240 244 246 242 244 240 235 235 229 230 232 231 234 236 236 237 235 234 234 231 229 226 224 225 225 224 221 219 218 217 214 213 210 206 205 205 198 189 195 202 203 199 197 199 192 199 176 147 148 164 188 204 211 207 212 213 213 215 209 210 217 218 225 230 231 234 233 222 207
14 11 11 13 9 14 32 41 45 44 32 21 8 341 312 289 273 269 270 270 269 265 261 253 242 239 234 227 226 229 234 235 232 233 235 233 231 229 227 226 226 225 223 219 218 219 218 216 214 210 209 208 202 195 195 198 201 204 207 210 212 209 167 156 172 152 160 205 214 209 214 214 211 211 208 213 221 220 226 234 235 237 234 220 207
13 11 13 16 13 19 37 44 45 43 35 28 25 10 347 331 314 299 287 282 283 285 289 281 256 246 237 227 223 223 230 233 228 228 233 235 233 231 230 229 228 227 226 222 219 221 220 218 216 214 211 209 206 203 200 197 199 204 209 213 219 218 198 184 196 194 162 174 195 205 215 214 213 215 213 216 221 220 226 234 235 235 232 221 207
12 8 15 17 13 23 40 46 44 40 35 32 31 23 6 351 335 323 312 302 297 293 292 291 276 254 238 229 226 225 227 231 229 226 229 233 235 234 231 230 230 228 227 225 223 224 223 221 218 215 212 212 211 209 207 203 204 205 207 211 217 221 219 215 215 218 216 196 174 185 197 201 215 223 220 219 222 224 227 231 234 232 227 222 209
12 7 14 14 15 29 39 43 42 38 35 33 33 29 19 6 349 338 329 320 314 309 302 295 290 275 255 242 234 233 229 227 228 227 228 233 236 236 234 232 233 231 230 229 227 226 225 224 222 220 216 215 214 213 212 210 210 210 208 208 209 211 216 218 220 220 222 223 215 183 176 181 199 218 219 219 219 222 223 224 230 228 221 221 212
14 8 10 12 25 36 38 40 39 37 35 33 32 31 26 17 3 349 336 327 320 313 308 303 299 291 279 267 253 245 237 230 228 227 230 233 233 234 236 236 234 232 231 232 230 226 226 226 225 224 221 219 218 217 216 216 215 214 213 211 209 208 209 209 213 212 209 213 215 189 180 187 193 203 210 215 215 216 219 221 226 228 221 218 214